﻿測定場所 (Monitoring sites),日付 (Measurement date),時間 (Measurement time),線量率 最大値 (max) μGy/h,線量率 最小値 (min) μGy/h,線量率 平均値 (average) μGy/h,
足立 (Adachi),2012-11-04,23:01～24:00,0.0628,0.0552,0.0585,
足立 (Adachi),2012-11-04,22:01～23:00,0.0618,0.0544,0.0583,
足立 (Adachi),2012-11-04,21:01～22:00,0.0619,0.0548,0.0584,
足立 (Adachi),2012-11-04,20:01～21:00,0.0622,0.0551,0.0577,
足立 (Adachi),2012-11-04,19:01～20:00,0.0617,0.0549,0.0578,
足立 (Adachi),2012-11-04,18:01～19:00,0.0610,0.0527,0.0576,
足立 (Adachi),2012-11-04,17:01～18:00,0.0610,0.0537,0.0575,
足立 (Adachi),2012-11-04,16:01～17:00,0.0612,0.0546,0.0577,
足立 (Adachi),2012-11-04,15:01～16:00,0.0617,0.0533,0.0579,
足立 (Adachi),2012-11-04,14:01～15:00,0.0613,0.0545,0.0583,
足立 (Adachi),2012-11-04,13:01～14:00,0.0621,0.0552,0.0584,
足立 (Adachi),2012-11-04,12:01～13:00,0.0616,0.0547,0.0582,
足立 (Adachi),2012-11-04,11:01～12:00,0.0628,0.0537,0.0579,
足立 (Adachi),2012-11-04,10:01～11:00,0.0633,0.0541,0.0581,
足立 (Adachi),2012-11-04,09:01～10:00,0.0617,0.0550,0.0585,
足立 (Adachi),2012-11-04,08:01～09:00,0.0616,0.0546,0.0585,
足立 (Adachi),2012-11-04,07:01～08:00,0.0614,0.0533,0.0577,
足立 (Adachi),2012-11-04,06:01～07:00,0.0610,0.0545,0.0580,
足立 (Adachi),2012-11-04,05:01～06:00,0.0632,0.0555,0.0584,
足立 (Adachi),2012-11-04,04:01～05:00,0.0619,0.0551,0.0585,
足立 (Adachi),2012-11-04,03:01～04:00,0.0617,0.0546,0.0586,
足立 (Adachi),2012-11-04,02:01～03:00,0.0619,0.0556,0.0586,
足立 (Adachi),2012-11-04,01:01～02:00,0.0615,0.0551,0.0582,
足立 (Adachi),2012-11-04,00:01～01:00,0.0621,0.0550,0.0586,
足立 (Adachi),2012-11-03,23:01～24:00,0.0629,0.0551,0.0584,
足立 (Adachi),2012-11-03,22:01～23:00,0.0622,0.0560,0.0583,
足立 (Adachi),2012-11-03,21:01～22:00,0.0611,0.0544,0.0580,
足立 (Adachi),2012-11-03,20:01～21:00,0.0615,0.0555,0.0583,
足立 (Adachi),2012-11-03,19:01～20:00,0.0618,0.0544,0.0580,
足立 (Adachi),2012-11-03,18:01～19:00,0.0615,0.0549,0.0581,
足立 (Adachi),2012-11-03,17:01～18:00,0.0615,0.0537,0.0571,
足立 (Adachi),2012-11-03,16:01～17:00,0.0612,0.0551,0.0577,
足立 (Adachi),2012-11-03,15:01～16:00,0.0612,0.0536,0.0577,
足立 (Adachi),2012-11-03,14:01～15:00,0.0612,0.0538,0.0576,
足立 (Adachi),2012-11-03,13:01～14:00,0.0613,0.0551,0.0582,
足立 (Adachi),2012-11-03,12:01～13:00,0.0611,0.0557,0.0585,
足立 (Adachi),2012-11-03,11:01～12:00,0.0629,0.0552,0.0582,
足立 (Adachi),2012-11-03,10:01～11:00,0.0624,0.0553,0.0586,
足立 (Adachi),2012-11-03,09:01～10:00,0.0617,0.0557,0.0586,
足立 (Adachi),2012-11-03,08:01～09:00,0.0628,0.0560,0.0591,
足立 (Adachi),2012-11-03,07:01～08:00,0.0619,0.0559,0.0588,
足立 (Adachi),2012-11-03,06:01～07:00,0.0625,0.0546,0.0589,
足立 (Adachi),2012-11-03,05:01～06:00,0.0607,0.0552,0.0583,
足立 (Adachi),2012-11-03,04:01～05:00,0.0622,0.0551,0.0581,
足立 (Adachi),2012-11-03,03:01～04:00,0.0610,0.0546,0.0577,
足立 (Adachi),2012-11-03,02:01～03:00,0.0621,0.0551,0.0580,
足立 (Adachi),2012-11-03,01:01～02:00,0.0605,0.0546,0.0577,
足立 (Adachi),2012-11-03,00:01～01:00,0.0624,0.0540,0.0578,
足立 (Adachi),2012-11-02,23:01～24:00,0.0614,0.0557,0.0579,
足立 (Adachi),2012-11-02,22:01～23:00,0.0614,0.0545,0.0579,
足立 (Adachi),2012-11-02,21:01～22:00,0.0630,0.0525,0.0580,
足立 (Adachi),2012-11-02,20:01～21:00,0.0638,0.0550,0.0583,
足立 (Adachi),2012-11-02,19:01～20:00,0.0627,0.0539,0.0577,
足立 (Adachi),2012-11-02,18:01～19:00,0.0610,0.0549,0.0579,
足立 (Adachi),2012-11-02,17:01～18:00,0.0617,0.0538,0.0577,
足立 (Adachi),2012-11-02,16:01～17:00,0.0618,0.0541,0.0578,
足立 (Adachi),2012-11-02,15:01～16:00,0.0601,0.0534,0.0572,
足立 (Adachi),2012-11-02,14:01～15:00,0.0604,0.0530,0.0574,
足立 (Adachi),2012-11-02,13:01～14:00,0.0629,0.0539,0.0578,
足立 (Adachi),2012-11-02,12:01～13:00,0.0610,0.0537,0.0577,
足立 (Adachi),2012-11-02,11:01～12:00,0.0609,0.0543,0.0581,
足立 (Adachi),2012-11-02,10:01～11:00,0.0608,0.0549,0.0579,
足立 (Adachi),2012-11-02,09:01～10:00,0.0629,0.0523,0.0574,
足立 (Adachi),2012-11-02,08:01～09:00,0.0601,0.0540,0.0570,
足立 (Adachi),2012-11-02,07:01～08:00,0.0598,0.0528,0.0561,
足立 (Adachi),2012-11-02,06:01～07:00,0.0577,0.0518,0.0544,
足立 (Adachi),2012-11-02,05:01～06:00,0.0602,0.0514,0.0551,
足立 (Adachi),2012-11-02,04:01～05:00,0.0596,0.0531,0.0552,
足立 (Adachi),2012-11-02,03:01～04:00,0.0595,0.0531,0.0560,
足立 (Adachi),2012-11-02,02:01～03:00,0.0639,0.0550,0.0583,
足立 (Adachi),2012-11-02,01:01～02:00,0.0612,0.0564,0.0590,
足立 (Adachi),2012-11-02,00:01～01:00,0.0618,0.0547,0.0587,
足立 (Adachi),2012-11-01,23:01～24:00,0.0614,0.0551,0.0585,
足立 (Adachi),2012-11-01,22:01～23:00,0.0626,0.0550,0.0584,
足立 (Adachi),2012-11-01,21:01～22:00,0.0620,0.0556,0.0583,
足立 (Adachi),2012-11-01,20:01～21:00,0.0612,0.0548,0.0584,
足立 (Adachi),2012-11-01,19:01～20:00,0.0605,0.0545,0.0576,
足立 (Adachi),2012-11-01,18:01～19:00,0.0611,0.0544,0.0580,
足立 (Adachi),2012-11-01,17:01～18:00,0.0616,0.0545,0.0578,
足立 (Adachi),2012-11-01,16:01～17:00,0.0603,0.0534,0.0570,
足立 (Adachi),2012-11-01,15:01～16:00,0.0599,0.0532,0.0568,
足立 (Adachi),2012-11-01,14:01～15:00,0.0603,0.0536,0.0570,
足立 (Adachi),2012-11-01,13:01～14:00,0.0608,0.0541,0.0575,
足立 (Adachi),2012-11-01,12:01～13:00,0.0631,0.0552,0.0585,
足立 (Adachi),2012-11-01,11:01～12:00,0.0612,0.0551,0.0583,
足立 (Adachi),2012-11-01,10:01～11:00,0.0610,0.0549,0.0582,
足立 (Adachi),2012-11-01,09:01～10:00,0.0613,0.0548,0.0583,
足立 (Adachi),2012-11-01,08:01～09:00,0.0608,0.0553,0.0583,
足立 (Adachi),2012-11-01,07:01～08:00,0.0612,0.0544,0.0582,
足立 (Adachi),2012-11-01,06:01～07:00,0.0612,0.0547,0.0582,
足立 (Adachi),2012-11-01,05:01～06:00,0.0618,0.0553,0.0587,
足立 (Adachi),2012-11-01,04:01～05:00,0.0634,0.0541,0.0587,
足立 (Adachi),2012-11-01,03:01～04:00,0.0612,0.0546,0.0584,
足立 (Adachi),2012-11-01,02:01～03:00,0.0611,0.0545,0.0578,
足立 (Adachi),2012-11-01,01:01～02:00,0.0614,0.0551,0.0579,
足立 (Adachi),2012-11-01,00:01～01:00,0.0612,0.0545,0.0577,
足立 (Adachi),2012-10-31,23:01～24:00,0.0614,0.0543,0.0576,
足立 (Adachi),2012-10-31,22:01～23:00,0.0606,0.0542,0.0576,
足立 (Adachi),2012-10-31,21:01～22:00,0.0627,0.0553,0.0579,
足立 (Adachi),2012-10-31,20:01～21:00,0.0624,0.0549,0.0578,
足立 (Adachi),2012-10-31,19:01～20:00,0.0608,0.0551,0.0576,
足立 (Adachi),2012-10-31,18:01～19:00,0.0602,0.0540,0.0573,
足立 (Adachi),2012-10-31,17:01～18:00,0.0626,0.0536,0.0566,
足立 (Adachi),2012-10-31,16:01～17:00,0.0633,0.0534,0.0566,
足立 (Adachi),2012-10-31,15:01～16:00,0.0608,0.0539,0.0575,
足立 (Adachi),2012-10-31,14:01～15:00,0.0611,0.0537,0.0574,
足立 (Adachi),2012-10-31,13:01～14:00,0.0596,0.0540,0.0571,
足立 (Adachi),2012-10-31,12:01～13:00,0.0612,0.0543,0.0575,
足立 (Adachi),2012-10-31,11:01～12:00,0.0606,0.0544,0.0576,
足立 (Adachi),2012-10-31,10:01～11:00,0.0610,0.0546,0.0577,
足立 (Adachi),2012-10-31,09:01～10:00,0.0611,0.0550,0.0581,
足立 (Adachi),2012-10-31,08:01～09:00,0.0620,0.0533,0.0576,
足立 (Adachi),2012-10-31,07:01～08:00,0.0626,0.0544,0.0580,
足立 (Adachi),2012-10-31,06:01～07:00,0.0608,0.0536,0.0574,
足立 (Adachi),2012-10-31,05:01～06:00,0.0612,0.0549,0.0581,
足立 (Adachi),2012-10-31,04:01～05:00,0.0625,0.0558,0.0587,
足立 (Adachi),2012-10-31,03:01～04:00,0.0628,0.0550,0.0590,
足立 (Adachi),2012-10-31,02:01～03:00,0.0616,0.0551,0.0591,
足立 (Adachi),2012-10-31,01:01～02:00,0.0621,0.0557,0.0592,
足立 (Adachi),2012-10-31,00:01～01:00,0.0638,0.0553,0.0591,
足立 (Adachi),2012-10-30,23:01～24:00,0.0622,0.0553,0.0590,
足立 (Adachi),2012-10-30,22:01～23:00,0.0618,0.0549,0.0584,
足立 (Adachi),2012-10-30,21:01～22:00,0.0614,0.0548,0.0582,
足立 (Adachi),2012-10-30,20:01～21:00,0.0608,0.0542,0.0581,
足立 (Adachi),2012-10-30,19:01～20:00,0.0622,0.0539,0.0581,
足立 (Adachi),2012-10-30,18:01～19:00,0.0616,0.0535,0.0577,
足立 (Adachi),2012-10-30,17:01～18:00,0.0620,0.0549,0.0572,
足立 (Adachi),2012-10-30,16:01～17:00,0.0620,0.0536,0.0571,
足立 (Adachi),2012-10-30,15:01～16:00,0.0604,0.0543,0.0576,
足立 (Adachi),2012-10-30,14:01～15:00,0.0604,0.0544,0.0574,
足立 (Adachi),2012-10-30,13:01～14:00,0.0598,0.0530,0.0563,
足立 (Adachi),2012-10-30,12:01～13:00,0.0599,0.0538,0.0569,
足立 (Adachi),2012-10-30,11:01～12:00,0.0611,0.0517,0.0574,
足立 (Adachi),2012-10-30,10:01～11:00,0.0609,0.0545,0.0576,
足立 (Adachi),2012-10-30,09:01～10:00,0.0624,0.0545,0.0580,
足立 (Adachi),2012-10-30,08:01～09:00,0.0624,0.0532,0.0581,
足立 (Adachi),2012-10-30,07:01～08:00,0.0603,0.0544,0.0577,
足立 (Adachi),2012-10-30,06:01～07:00,0.0604,0.0529,0.0572,
足立 (Adachi),2012-10-30,05:01～06:00,0.0604,0.0535,0.0572,
足立 (Adachi),2012-10-30,04:01～05:00,0.0600,0.0550,0.0574,
足立 (Adachi),2012-10-30,03:01～04:00,0.0609,0.0540,0.0574,
足立 (Adachi),2012-10-30,02:01～03:00,0.0627,0.0542,0.0576,
足立 (Adachi),2012-10-30,01:01～02:00,0.0612,0.0540,0.0580,
足立 (Adachi),2012-10-30,00:01～01:00,0.0621,0.0549,0.0577,
足立 (Adachi),2012-10-29,23:01～24:00,0.0610,0.0541,0.0583,
足立 (Adachi),2012-10-29,22:01～23:00,0.0606,0.0549,0.0579,
足立 (Adachi),2012-10-29,21:01～22:00,0.0625,0.0536,0.0579,
足立 (Adachi),2012-10-29,20:01～21:00,0.0637,0.0546,0.0577,
足立 (Adachi),2012-10-29,19:01～20:00,0.0618,0.0541,0.0577,
足立 (Adachi),2012-10-29,18:01～19:00,0.0603,0.0538,0.0571,
足立 (Adachi),2012-10-29,17:01～18:00,0.0607,0.0537,0.0574,
足立 (Adachi),2012-10-29,16:01～17:00,0.0619,0.0537,0.0574,
足立 (Adachi),2012-10-29,15:01～16:00,0.0610,0.0541,0.0572,
足立 (Adachi),2012-10-29,14:01～15:00,0.0605,0.0546,0.0572,
足立 (Adachi),2012-10-29,13:01～14:00,0.0597,0.0538,0.0567,
足立 (Adachi),2012-10-29,12:01～13:00,0.0595,0.0543,0.0565,
足立 (Adachi),2012-10-29,11:01～12:00,0.0593,0.0535,0.0560,
足立 (Adachi),2012-10-29,10:01～11:00,0.0598,0.0529,0.0563,
足立 (Adachi),2012-10-29,09:01～10:00,0.0613,0.0526,0.0565,
足立 (Adachi),2012-10-29,08:01～09:00,0.0602,0.0529,0.0561,
足立 (Adachi),2012-10-29,07:01～08:00,0.0601,0.0522,0.0555,
足立 (Adachi),2012-10-29,06:01～07:00,0.0604,0.0518,0.0555,
足立 (Adachi),2012-10-29,05:01～06:00,0.0604,0.0523,0.0561,
足立 (Adachi),2012-10-29,04:01～05:00,0.0627,0.0546,0.0583,
足立 (Adachi),2012-10-29,03:01～04:00,0.0726,0.0590,0.0641,
足立 (Adachi),2012-10-29,02:01～03:00,0.0851,0.0684,0.0762,
足立 (Adachi),2012-10-29,01:01～02:00,0.0827,0.0714,0.0752,
足立 (Adachi),2012-10-29,00:01～01:00,0.0785,0.0690,0.0739,
